Regional Weather Roundup
Issued by NWS

Home | Current Version | Previous Version | Graphics & Text | Print | Product List | Glossary On
Versions: 1 2 3 4 5 6 7 8 9 10 11 12 13 14 15 16 17 18 19 20 21 22 23 24 25 26 27 28 29 30 31 32 33 34 35 36 37 38 39 40 41 42 43 44 45 46 47 48 49 50
000
ASUS43 KOAX 201702
RWRNE

WEATHER ROUNDUP FOR NEBRASKA
NATIONAL WEATHER SERVICE OMAHA NE
1200 PM CDT SAT SEP 20 2014

NOTES: SATELLITE DATA IS BEING USED TO AUGMENT CLOUD COVER ABOVE
       12000 FEET.
       "FAIR" INDICATES FEW OR NO CLOUDS BELOW 12,000 FEET WITH NO
       SIGNIFICANT WEATHER AND/OR OBSTRUCTIONS TO VISIBILITY.

  * THESE STATIONS DO NOT REPORT WEATHER SUCH AS RAIN...SNOW OR FOG.

NEZ001>004-019>022-054>056-201800-
NEBRASKA PANHANDLE

CITY           SKY/WX    TMP DP  RH WIND       PRES   REMARKS
SCOTTSBLUFF    SUNNY     74  49  41 W9        30.20S
ALLIANCE       SUNNY     75  47  36 NW10      30.17S
CHADRON        SUNNY     77  48  35 NW17G24   30.15R
KIMBALL        SUNNY     72  45  37 N6        30.23R
SIDNEY         SUNNY     75  47  36 NE12      30.21S
$$

NEZ057>060-069>072-079>082-201800-
SOUTHWEST NEBRASKA

CITY           SKY/WX    TMP DP  RH WIND       PRES   REMARKS
NORTH PLATTE   SUNNY     79  51  37 N12       30.09R
IMPERIAL       SUNNY     78  45  30 NE17      30.13R
LEXINGTON      SUNNY     79  54  42 NE13      30.06R
MCCOOK         SUNNY     81  50  33 NE17G24   30.08R
OGALLALA       SUNNY     78  49  35 NE7       30.14R
$$

NEZ005>010-023>029-035>040-094-201800-
NORTH CENTRAL NEBRASKA

CITY           SKY/WX    TMP DP  RH WIND       PRES   REMARKS
VALENTINE      SUNNY     80  51  36 NW10      30.06S
AINSWORTH      SUNNY     76  48  37 NW10      30.06R
BROKEN BOW     SUNNY     80  51  36 N9        30.06R
O`NEILL        SUNNY     76  58  54 W5        30.01R
ORD            SUNNY     78  56  46 NW7       30.01S
THEDFORD       SUNNY     79  49  35 N12G20    30.09S
$$

NEZ041-046>049-061>064-073>077-083>087-201800-
SOUTH CENTRAL NEBRASKA

CITY           SKY/WX    TMP DP  RH WIND       PRES   REMARKS
GRAND ISLAND   SUNNY     80  55  42 NE7       30.01R
AURORA         SUNNY     80  54  41 NE6       29.99R
HASTINGS       SUNNY     81  52  36 NE13      30.01R
HEBRON         MOSUNNY   79  62  55 NW3       29.97S
HOLDREGE       SUNNY     78  53  41 N17       30.04R
KEARNEY *      SUNNY     79  55  44 NE13      30.04R
YORK           SUNNY     79  61  53 NE7       29.98S
$$

NEZ011>018-030>034-042>045-201800-
NORTHEAST NEBRASKA

CITY           SKY/WX    TMP DP  RH WIND       PRES   REMARKS
NORFOLK        SUNNY     79  58  48 NW10      29.97R
ALBION         SUNNY     78  54  43 NW8       30.00S
BLAIR          MOSUNNY   80  65  59 S7        29.93S
COLUMBUS *     SUNNY     77  59  53 W5        29.98S
FREMONT        SUNNY     80  64  57 CALM      29.94R
TEKAMAH        SUNNY     80  63  55 NW6       29.92S
WAYNE          SUNNY     77  60  55 NW5       29.96S
$$

NEZ050>053-065>068-078-088>093-201800-
SOUTHEAST NEBRASKA

CITY           SKY/WX    TMP DP  RH WIND       PRES   REMARKS
LINCOLN        MOSUNNY   79  67  66 S7        29.95F
OMAHA EPPLEY   MOSUNNY   78  67  68 S10       29.91F
BEATRICE       CLOUDY    76  66  70 N3        29.96S
FALLS CITY     TSTM      69  67  93 MISG      29.95F VSB 1/2
NEBRASKA CITY    N/A     70  69  97 SW8       29.96S
PLATTSMOUTH    MOSUNNY   74  67  79 S9        29.93F
$$

NEZ044-045-051>053-067-201800-
OMAHA AREA

CITY           SKY/WX    TMP DP  RH WIND       PRES   REMARKS
OMAHA EPPLEY   MOSUNNY   78  67  68 S10       29.91F
BLAIR          MOSUNNY   80  65  59 S7        29.93S
FREMONT        SUNNY     80  64  57 CALM      29.94R
MILLARD        SUNNY     77  68  75 SW7       29.92F
OFFUTT AFB     MOSUNNY   77  72  85 SW12      29.92F
PLATTSMOUTH    MOSUNNY   74  67  79 S9        29.93F
WAHOO          FAIR      81  63  53 W5        29.94R
$$



USA.gov is the U.S. government's official web portal to all federal, state and local government web resources and services.